Regional Weather Roundup
Issued by NWS

Home | Current Version | Previous Version | Text Only | Print | Product List | Glossary Off
Versions: 1 2 3 4 5 6 7 8 9 10 11 12 13 14 15 16 17 18 19 20 21 22 23 24 25 26 27 28

000
ASUS45 KCYS 231510
RWRWY

WYOMING REGIONAL WEATHER ROUNDUP
NATIONAL WEATHER SERVICE CHEYENNE WY
900 AM MDT WED APR 23 2014

NOTE:  "FAIR" INDICATES FEW OR NO CLOUDS BELOW 12,000 FEET
WITH NO SIGNIFICANT WEATHER AND/OR OBSTRUCTIONS TO VISIBILITY.

WYZ001-231600-
YELLOWSTONE NATIONAL PARK

CITY           SKY/WX    TMP DP  RH WIND       PRES   REMARKS
LK YELLOWSTONE   N/A     24  18  77 W10G23    29.79R WCI  14
W YELLOWSTONE  NOT AVBL

$$
WYZ002>013-054>058-071-098>099-231600-
NORTHERN WYOMING

CITY           SKY/WX    TMP DP  RH WIND       PRES   REMARKS
JACKSON        PTSUNNY   32  21  64 S22G29    29.85R WCI  19
CODY           CLOUDY    43  21  42 W15G28    29.65R
GREYBULL       CLOUDY    50  30  46 W16       29.62R
WORLAND        CLOUDY    51  31  46 N15       29.64R
SHERIDAN         N/A     36  27  69 SW28        N/A  WCI  23
BUFFALO        PTSUNNY   47  34  60 N31G38    29.61R
GILLETTE       CLOUDY    50  40  68 W14       29.57R
HULETT         FAIR      55  43  62 NW18      29.53
NEWCASTLE      FAIR      52  32  46 CALM      29.59

$$
WYZ014>020-022>026-101>103-231600-
CENTRAL WYOMING

CITY           SKY/WX    TMP DP  RH WIND       PRES   REMARKS
BIG PINEY      SUNNY     34  11  38 NW16      29.85S WCI  24
PINEDALE       MOSUNNY   32  14  47 W14G21    29.85S WCI  22
DUBOIS         CLOUDY    32  12  43 W24G35    29.74R WCI  19
LANDER         SUNNY     45  12  26 W9G21     29.70R
RIVERTON       SUNNY     47  17  30 NW15      29.71R
CASPER         SUNNY     47  26  44 SW28G41   29.68R
DOUGLAS        PTSUNNY   51  26  37 W20G25    29.66S

$$
WYZ021-027>030-104>119-231600-
SOUTHERN WYOMING

CITY           SKY/WX    TMP DP  RH WIND       PRES   REMARKS
EVANSTON       MOSUNNY   30  22  72 W15       29.94R WCI  19
FORT BRIDGER   FAIR      29  21  71 W23G29    29.94R WCI  16
ROCK SPRINGS   CLOUDY    34  19  54 W28G35    29.89R WCI  21
DIXON          CLOUDY    38  30  73 W13G18    29.91R WCI  30
RAWLINS        MOSUNNY   36  27  69 SW28G36   29.80F WCI  23
SARATOGA       CLOUDY    37  30  75 SW24      29.84F WCI  26
LARAMIE        MOSUNNY   44  26  49 W21       29.74F
CHEYENNE       PTSUNNY   51  32  48 W28G41    29.66F
TORRINGTON     CLOUDY    55  33  43 W26G36    29.59F
PINE BLUFFS    FAIR      54  32  43 W28       29.62F

$$



USA.gov is the U.S. government's official web portal to all federal, state and local government web resources and services.